CW5554 Weather Reports


time (UTC)temp
C
wind
direction
speed
KPH
gust
KPH
rain 1hr
cm
rain 24hr
cm
rain mn
cm
humidity
%
barometer
mb
20260508005447 7 146 0.0 0.0 0.00 0.00 0.00 84 1014.9
20260508004947 7 146 0.0 0.0 0.00 0.00 0.00 84 1015.0
20260508004447 7 146 0.0 0.0 0.00 0.00 0.00 84 1015.0
20260508003517 7 146 0.0 3.2 0.00 0.00 0.00 84 1015.1
20260508002946 7 146 1.6 3.2 0.00 0.00 0.00 83 1015.2
20260508002447 7 146 1.6 1.6 0.00 0.00 0.00 83 1015.2
20260508001947 7 146 0.0 0.0 0.00 0.00 0.00 82 1015.1
20260508000947 7 146 0.0 0.0 0.00 0.00 0.00 82 1015.0
20260507235447 7 146 0.0 0.0 0.00 0.00 0.00 82 1015.0
20260507234948 7 146 0.0 0.0 0.00 0.00 0.00 82 1015.0
20260507234447 7 146 0.0 0.0 0.00 0.00 0.00 82 1015.0
20260507233446 7 146 0.0 0.0 0.00 0.00 0.00 81 1015.1
20260507232947 7 146 0.0 0.0 0.00 0.00 0.00 81 1015.2
20260507231947 7 146 0.0 1.6 0.00 0.00 0.00 81 1015.2
20260507230447 8 146 1.6 1.6 0.00 0.00 0.00 81 1015.3
20260507230017 8 146 1.6 1.6 0.00 0.00 0.00 81 1015.3
20260507225517 8 146 0.0 3.2 0.00 0.00 0.00 82 1015.3
20260507225016 8 146 1.6 3.2 0.00 0.00 0.00 82 1015.4
20260507224447 8 146 0.0 1.6 0.00 0.00 0.00 82 1015.4
20260507224016 8 146 0.0 0.0 0.00 0.00 0.00 82 1015.5
20260507223516 8 146 0.0 1.6 0.00 0.00 0.00 82 1015.5
20260507223016 8 146 0.0 1.6 0.00 0.00 0.00 82 1015.5
20260507222016 8 146 0.0 1.6 0.00 0.00 0.00 82 1015.5
20260507221447 8 146 0.0 3.2 0.00 0.00 0.00 82 1015.6
20260507221016 8 146 0.0 4.8 0.00 0.00 0.00 82 1015.6
20260507220447 8 146 0.0 4.8 0.00 0.00 0.00 82 1015.6
20260507220017 8 145 1.6 3.2 0.00 0.00 0.00 82 1015.6
20260507215447 8 144 0.0 0.0 0.00 0.00 0.00 82 1015.3
20260507215017 8 144 0.0 0.0 0.00 0.00 0.00 82 1015.3
20260507214517 8 144 0.0 1.6 0.00 0.00 0.00 82 1015.4
20260507214016 8 144 0.0 1.6 0.00 0.00 0.00 82 1015.3
20260507213518 8 144 0.0 1.6 0.00 0.00 0.00 82 1015.2
20260507212517 8 144 0.0 3.2 0.00 0.00 0.00 82 1015.3
20260507211518 8 146 0.0 6.4 0.00 0.00 0.00 82 1015.3
20260507211016 8 160 1.6 6.4 0.00 0.00 0.00 82 1015.3
20260507210017 9 162 0.0 0.0 0.00 0.00 0.00 81 1015.3
20260507205516 9 162 0.0 1.6 0.00 0.00 0.00 81 1015.2
20260507204947 9 162 0.0 1.6 0.00 0.00 0.00 80 1015.2
20260507204016 10 162 0.0 6.4 0.00 0.00 0.00 79 1015.1
20260507203016 10 163 0.0 6.4 0.00 0.00 0.00 79 1015.0
20260507202516 10 165 1.6 6.4 0.00 0.00 0.00 78 1015.0
20260507201946 10 166 0.0 6.4 0.00 0.00 0.00 78 1014.9
20260507201017 10 178 0.0 4.8 0.00 0.00 0.00 77 1014.8
20260507200446 10 178 1.6 4.8 0.00 0.00 0.00 77 1014.7
20260507200016 11 180 4.8 4.8 0.00 0.00 0.00 76 1014.6
20260507195516 11 184 0.0 4.8 0.00 0.00 0.00 75 1014.6
20260507194946 11 184 1.6 4.8 0.00 0.00 0.00 74 1014.4
20260507194516 11 185 0.0 4.8 0.00 0.00 0.00 74 1014.4
20260507194016 11 185 1.6 4.8 0.00 0.00 0.00 73 1014.3
20260507193017 12 187 1.6 6.4 0.00 0.00 0.00 72 1014.2
20260507192448 12 188 1.6 6.4 0.00 0.00 0.00 71 1014.2
20260507190446 12 116 1.6 4.8 0.00 0.00 0.00 69 1014.1
20260507185516 12 185 3.2 6.4 0.00 0.00 0.00 69 1014.0
20260507184946 13 195 4.8 4.8 0.00 0.00 0.00 68 1013.9
20260507184516 13 198 1.6 11.3 0.00 0.00 0.00 68 1013.9
20260507183946 13 200 1.6 12.9 0.00 0.00 0.00 67 1013.9
20260507183517 13 159 9.7 12.9 0.00 0.00 0.00 66 1013.9
20260507183017 13 163 6.4 12.9 0.00 0.00 0.00 66 1014.0
20260507181946 13 199 4.8 12.9 0.00 0.00 0.00 65 1014.0
20260507181516 14 173 11.3 12.9 0.00 0.00 0.00 64 1013.9
20260507181016 14 171 9.7 14.5 0.00 0.00 0.00 64 1013.9
20260507180516 14 169 6.4 14.5 0.00 0.00 0.00 64 1013.9
20260507180017 14 223 8.0 12.9 0.00 0.00 0.00 63 1013.8
20260507175516 14 198 9.7 11.3 0.00 0.00 0.00 65 1013.7
20260507175016 14 167 6.4 11.3 0.00 0.00 0.00 64 1013.7
20260507174446 14 165 1.6 17.7 0.00 0.00 0.00 64 1013.7
20260507173516 15 170 9.7 16.1 0.00 0.00 0.00 64 1013.7
20260507173017 15 152 6.4 16.1 0.00 0.00 0.00 64 1013.7
20260507172516 15 151 3.2 16.1 0.00 0.00 0.00 64 1013.7
20260507172016 15 194 16.1 16.1 0.00 0.00 0.00 66 1013.8
20260507171516 14 220 6.4 12.9 0.00 0.00 0.00 66 1013.8
20260507170946 14 220 9.7 16.1 0.00 0.00 0.00 65 1013.7
20260507170516 14 236 3.2 16.1 0.00 0.00 0.00 66 1013.7
20260507165516 14 200 6.4 11.3 0.00 0.00 0.00 65 1013.7
20260507165016 14 190 4.8 12.9 0.00 0.00 0.00 64 1013.7
20260507164516 14 241 8.0 12.9 0.00 0.00 0.00 64 1013.7
20260507164016 14 197 4.8 12.9 0.00 0.00 0.00 64 1013.7
20260507163516 14 200 8.0 11.3 0.00 0.00 0.00 62 1013.8
20260507163016 15 244 6.4 12.9 0.00 0.00 0.00 63 1013.7
20260507162516 14 256 1.6 14.5 0.00 0.00 0.00 64 1013.7
20260507161946 14 211 3.2 14.5 0.00 0.00 0.00 64 1013.8
20260507161446 14 232 6.4 14.5 0.00 0.00 0.00 64 1013.8
20260507161016 14 234 11.3 12.9 0.00 0.00 0.00 62 1013.8
20260507160446 14 249 6.4 11.3 0.00 0.00 0.00 62 1013.8
20260507160016 13 213 3.2 12.9 0.00 0.00 0.00 62 1013.9
20260507155446 14 230 8.0 12.9 0.00 0.00 0.00 61 1013.8
20260507155016 14 209 3.2 12.9 0.00 0.00 0.00 60 1013.9
20260507154516 14 230 6.4 14.5 0.00 0.00 0.00 59 1013.9
20260507154016 14 215 6.4 14.5 0.00 0.00 0.00 59 1013.9
20260507153516 14 194 14.5 14.5 0.00 0.00 0.00 58 1013.9
20260507152946 14 226 4.8 12.9 0.00 0.00 0.00 58 1013.8
20260507152446 14 179 3.2 12.9 0.00 0.00 0.00 57 1013.9
20260507151946 15 200 6.4 12.9 0.00 0.00 0.00 55 1013.9
20260507151446 15 230 4.8 12.9 0.00 0.00 0.00 53 1013.8
20260507151016 15 210 4.8 12.9 0.00 0.00 0.00 51 1013.9
20260507150516 15 159 8.0 12.9 0.00 0.00 0.00 51 1013.8
20260507150016 15 157 3.2 11.3 0.00 0.00 0.00 50 1013.9
20260507145516 15 189 3.2 9.7 0.00 0.00 0.00 52 1013.9
20260507145016 15 76 8.0 9.7 0.00 0.00 0.00 49 1013.9
20260507144016 15 150 0.0 14.5 0.00 0.00 0.00 49 1014.0
20260507143516 15 185 0.0 14.5 0.00 0.00 0.00 48 1014.0
20260507143016 15 203 4.8 8.0 0.00 0.00 0.00 48 1014.0
20260507142016 16 240 6.4 11.3 0.00 0.00 0.00 48 1014.1
20260507141446 16 208 4.8 8.0 0.00 0.00 0.00 47 1014.1
20260507140516 15 155 0.0 4.8 0.00 0.00 0.00 47 1014.1
20260507140016 16 162 0.0 8.0 0.00 0.00 0.00 47 1014.1
20260507135516 16 178 3.2 8.0 0.00 0.00 0.00 46 1014.1
20260507134946 16 148 1.6 4.8 0.00 0.00 0.00 46 1014.1
20260507134516 16 306 1.6 4.8 0.00 0.00 0.00 51 1014.1
20260507134016 15 302 1.6 11.3 0.00 0.00 0.00 50 1014.1
20260507133446 15 336 3.2 11.3 0.00 0.00 0.00 48 1014.2
20260507132946 15 302 1.6 9.7 0.00 0.00 0.00 49 1014.2
20260507132516 15 235 0.0 9.7 0.00 0.00 0.00 48 1014.3
20260507132016 15 222 6.4 9.7 0.00 0.00 0.00 50 1014.3
20260507131016 15 208 4.8 8.0 0.00 0.00 0.00 48 1014.4
20260507130446 15 184 3.2 9.7 0.00 0.00 0.00 47 1014.4
20260507125946 15 252 0.0 9.7 0.00 0.00 0.00 48 1014.4
20260507125516 15 9 0.0 4.8 0.00 0.00 0.00 47 1014.4
20260507124446 15 313 3.2 8.0 0.00 0.00 0.00 49 1014.5
20260507124016 15 339 4.8 9.7 0.00 0.00 0.00 50 1014.6
20260507123446 15 178 1.6 9.7 0.00 0.00 0.00 49 1014.6
20260507122946 14 149 6.4 6.4 0.00 0.00 0.00 49 1014.6
20260507122516 14 127 4.8 4.8 0.00 0.00 0.00 52 1014.6
20260507121946 14 78 1.6 4.8 0.00 0.00 0.00 50 1014.6
20260507121516 14 78 0.0 4.8 0.00 0.00 0.00 49 1014.6
20260507121016 14 78 1.6 4.8 0.00 0.00 0.00 50 1014.6
20260507120516 14 69 1.6 4.8 0.00 0.00 0.00 51 1014.6
20260507115446 14 23 1.6 8.0 0.00 0.00 0.00 50 1014.7
20260507114946 14 5 3.2 4.8 0.00 0.00 0.00 51 1014.6
20260507114516 14 5 3.2 8.0 0.00 0.00 0.00 57 1014.6
20260507113516 14 292 4.8 8.0 0.00 0.00 0.00 50 1014.7
20260507113016 14 229 1.6 9.7 0.00 0.00 0.00 47 1014.6
20260507112445 15 228 3.2 9.7 0.00 0.00 0.00 50 1014.6
20260507111517 15 346 3.2 6.4 0.00 0.00 0.00 49 1014.6
20260507111016 16 296 3.2 6.4 0.00 0.00 0.00 46 1014.7
20260507110516 16 257 1.6 9.7 0.00 0.00 0.00 49 1014.7
20260507105446 15 190 6.4 9.7 0.00 0.00 0.00 51 1014.7
20260507104946 14 92 0.0 9.7 0.00 0.00 0.00 54 1014.7
20260507104516 14 108 4.8 9.7 0.00 0.00 0.00 54 1014.8
20260507104016 14 99 3.2 11.3 0.00 0.00 0.00 55 1014.8
20260507103446 14 81 0.0 11.3 0.00 0.00 0.00 61 1014.9
20260507102946 13 90 3.2 6.4 0.00 0.00 0.00 64 1015.0
20260507102516 13 111 3.2 6.4 0.00 0.00 0.00 64 1015.0
20260507102016 13 132 0.0 8.0 0.00 0.00 0.00 66 1015.0
20260507100946 13 109 6.4 6.4 0.00 0.00 0.00 68 1015.1
20260507100516 13 110 0.0 6.4 0.00 0.00 0.00 67 1015.1
20260507095946 12 98 3.2 8.0 0.00 0.00 0.00 70 1015.2
20260507095447 12 62 0.0 8.0 0.00 0.00 0.00 71 1015.2
20260507094946 12 69 3.2 8.0 0.00 0.00 0.00 68 1015.2
20260507094515 12 102 3.2 8.0 0.00 0.00 0.00 71 1015.1
20260507093446 11 221 3.2 8.0 0.00 0.00 0.00 77 1015.2
20260507093015 11 86 0.0 9.7 0.00 0.00 0.00 76 1015.2
20260507092445 11 147 0.0 9.7 0.00 0.00 0.00 77 1015.2
20260507091945 11 219 3.2 9.7 0.00 0.00 0.00 78 1015.2
20260507091515 11 137 1.6 9.7 0.00 0.00 0.00 80 1015.3
20260507091015 11 103 3.2 9.7 0.00 0.00 0.00 81 1015.2
20260507090445 11 105 9.7 9.7 0.00 0.00 0.00 81 1015.2
20260507085015 10 98 1.6 8.0 0.00 0.00 0.00 85 1015.2
20260507084445 10 55 1.6 8.0 0.00 0.00 0.00 86 1015.2
20260507084017 10 84 4.8 6.4 0.00 0.00 0.00 87 1015.2
20260507083516 10 243 1.6 6.4 0.00 0.00 0.00 89 1015.3
20260507082946 9 119 1.6 6.4 0.00 0.00 0.00 90 1015.2
20260507082517 9 150 6.4 6.4 0.00 0.00 0.00 91 1015.3
20260507082015 9 100 3.2 8.0 0.00 0.00 0.00 91 1015.3
20260507081516 8 131 3.2 8.0 0.00 0.00 0.00 92 1015.3
20260507080945 8 129 4.8 6.4 0.00 0.00 0.00 93 1015.4
20260507080016 8 113 0.0 4.8 0.00 0.00 0.00 93 1015.3
20260507074946 7 180 3.2 4.8 0.00 0.00 0.00 93 1015.3
20260507074516 7 182 3.2 3.2 0.00 0.00 0.00 93 1015.3
20260507074016 7 184 0.0 3.2 0.00 0.00 0.00 93 1015.2
20260507073446 7 302 0.0 1.6 0.00 0.00 0.00 93 1015.3
20260507072945 6 132 0.0 0.0 0.00 0.00 0.00 93 1015.3
20260507072516 6 155 0.0 3.2 0.00 0.00 0.00 92 1015.2
20260507071516 6 61 0.0 0.0 0.00 0.00 0.00 92 1015.1
20260507071016 5 61 0.0 3.2 0.00 0.00 0.00 92 1015.1
20260507070515 5 67 0.0 3.2 0.00 0.00 0.00 91 1015.1
20260507070015 5 68 0.0 3.2 0.00 0.00 0.00 91 1015.1
20260507065516 5 241 1.6 1.6 0.00 0.00 0.00 91 1015.1
20260507064945 5 241 0.0 1.6 0.00 0.00 0.00 91 1015.2
20260507064015 4 241 0.0 3.2 0.00 0.00 0.00 90 1015.2
20260507062946 4 22 0.0 3.2 0.00 0.00 0.00 90 1015.2
20260507062515 4 355 0.0 3.2 0.00 0.00 0.00 90 1015.2
20260507061946 4 355 0.0 3.2 0.00 0.00 0.00 90 1015.1
20260507061445 4 355 1.6 1.6 0.00 0.00 0.00 90 1015.1
20260507061015 4 355 0.0 0.0 0.00 0.00 0.00 90 1015.1
20260507060445 3 355 0.0 0.0 0.00 0.00 0.00 89 1015.1
20260507060015 3 355 0.0 0.0 0.00 0.00 0.00 89 1015.0
20260507055515 3 355 0.0 0.0 0.00 0.00 0.00 89 1015.0
20260507054945 3 355 0.0 3.2 0.00 0.00 0.00 89 1015.0
20260507054515 3 355 0.0 3.2 0.00 0.00 0.00 89 1014.9
20260507053946 3 355 0.0 3.2 0.00 0.00 0.00 89 1014.9
20260507053015 3 355 0.0 0.0 0.00 0.00 0.00 88 1014.8
20260507052445 3 355 0.0 3.2 0.00 0.00 0.00 88 1014.7
20260507052016 3 355 0.0 3.2 0.00 0.00 0.00 88 1014.7
20260507051445 3 36 1.6 1.6 0.00 0.00 0.00 88 1014.8
20260507051015 3 238 0.0 0.0 0.00 0.00 0.00 88 1014.7
20260507050445 3 201 0.0 0.0 0.00 0.00 0.00 88 1014.7
20260507050016 3 44 0.0 0.0 0.00 0.00 0.00 88 1014.7
20260507044447 3 49 0.0 0.0 0.00 0.00 0.00 87 1014.6
20260507044015 3 59 0.0 0.0 0.00 0.00 0.00 87 1014.6
20260507043015 3 57 0.0 3.2 0.00 0.00 0.00 87 1014.6
20260507042445 3 30 0.0 3.2 0.00 0.00 0.00 87 1014.5
20260507042017 3 30 1.6 4.8 0.00 0.00 0.00 87 1014.5
20260507035946 3 30 0.0 6.4 0.00 0.00 0.00 86 1014.6
20260507035445 3 30 3.2 6.4 0.00 0.00 0.00 85 1014.6
20260507034945 3 32 1.6 4.8 0.00 0.00 0.00 86 1014.6
20260507034445 3 32 0.0 4.8 0.00 0.00 0.00 85 1014.5
20260507034015 3 32 1.6 3.2 0.00 0.00 0.00 85 1014.6
20260507033445 3 32 0.0 1.6 0.00 0.00 0.00 85 1014.5
20260507032945 3 32 0.0 0.0 0.00 0.00 0.00 85 1014.5
20260507032515 3 32 0.0 0.0 0.00 0.00 0.00 85 1014.5
20260507031945 3 32 0.0 0.0 0.00 0.00 0.00 85 1014.5
20260507031515 3 32 0.0 0.0 0.00 0.00 0.00 85 1014.4
20260507030945 3 32 0.0 0.0 0.00 0.00 0.00 85 1014.5
20260507030015 3 32 0.0 0.0 0.00 0.00 0.00 85 1014.5
20260507025445 3 32 0.0 0.0 0.00 0.00 0.00 84 1014.4
20260507025016 3 32 0.0 0.0 0.00 0.00 0.00 84 1014.5
20260507024515 3 32 0.0 0.0 0.00 0.00 0.00 84 1014.5
20260507024015 3 32 0.0 0.0 0.00 0.00 0.00 84 1014.4
20260507023515 3 32 0.0 0.0 0.00 0.00 0.00 84 1014.5
20260507023015 3 32 0.0 0.0 0.00 0.00 0.00 84 1014.4
20260507022445 3 32 0.0 0.0 0.00 0.00 0.00 84 1014.4
20260507022015 3 32 0.0 0.0 0.00 0.00 0.00 84 1014.4
20260507021445 4 32 0.0 0.0 0.00 0.00 0.00 84 1014.4
20260507020945 4 32 0.0 0.0 0.00 0.00 0.00 84 1014.4
20260507020515 4 32 0.0 1.6 0.00 0.00 0.00 84 1014.4
20260507020016 4 32 0.0 1.6 0.00 0.00 0.00 84 1014.4
20260507015445 4 32 0.0 1.6 0.00 0.00 0.00 84 1014.4
20260507015015 4 32 0.0 3.2 0.00 0.00 0.00 84 1014.4
20260507014445 4 32 0.0 3.2 0.00 0.00 0.00 84 1014.3
20260507014015 4 32 0.0 1.6 0.00 0.00 0.00 84 1014.4
20260507013446 4 32 0.0 3.2 0.00 0.00 0.00 83 1014.4
20260507013015 4 32 0.0 4.8 0.00 0.00 0.00 83 1014.4
20260507012515 4 32 0.0 4.8 0.00 0.00 0.00 83 1014.4
20260507011945 4 32 1.6 4.8 0.00 0.00 0.00 83 1014.3
20260507010445 5 32 0.0 1.6 0.00 0.00 0.00 82 1014.5
20260507010015 5 32 1.6 1.6 0.00 0.00 0.00 82 1014.5
20260507005515 5 32 0.0 0.0 0.00 0.00 0.00 82 1014.5